This demonstration page uses our WeatherBlox Daily Observations layout. Learn more.

Left ArrowRight Arrow

Hourly Observations for September 6, 2016

Temp ( °F °C ) Dew Point ( °F °C ) Humidity (%) Winds ( mph kmh ) Pressure ( in mb ) Visibility ( mi km ) Precip ( " mm )
12:51 am 00:51 Clear 76 24.4 30 -1.1 18 18 Calm 29.69 1005 10 16.0934 0 0
1:51 am 01:51 Clear 72 22.2 30 -1.1 21 21 N 3 6 29.69 1005 10 16.0934 0 0
2:51 am 02:51 Clear 71 21.7 32 0 24 24 ESE 5 7 29.71 1006 10 16.0934 0 0
3:51 am 03:51 Mostly Clear 71 21.7 33 0.6 25 25 SE 5 7 29.72 1007 10 16.0934 0 0
4:51 am 04:51 Partly Cloudy 71 21.7 35 1.7 27 27 Calm 29.73 1007 10 16.0934 0 0
5:51 am 05:51 Clear 67 19.4 38 3.3 35 35 Calm 29.76 1008 10 16.0934 0 0
6:51 am 06:51 Sunny 70 21.1 38 3.3 31 31 Calm 29.78 1008 10 16.0934 0 0
7:51 am 07:51 Sunny 70 21.1 39 3.9 32 32 ESE 3 6 29.81 1010 10 16.0934 0 0
8:51 am 08:51 Sunny 80 26.7 37 2.8 21 21 Calm 29.81 1010 10 16.0934 0 0
9:51 am 09:51 Sunny 83 28.3 37 2.8 19 19 VRB 3 6 29.82 1010 10 16.0934 0 0
10:51 am 10:51 Mostly Sunny 85 29.4 46 7.8 26 26 S 7 11 29.81 1009 10 16.0934 0 0
11:51 am 11:51 Mostly Cloudy 87 30.6 41 5 20 20 SW 7 11 29.8 1009 10 16.0934 0 0
12:51 pm 12:51 Cloudy 89 31.7 39 3.9 17 17 SSW 6 9 29.8 1009 10 16.0934 0 0
1:51 pm 13:51 Mostly Cloudy 89 31.7 44 6.7 21 21 SSE 14 22 29.8 1009 10 16.0934 0 0
2:51 pm 14:51 Mostly Cloudy 88 31.1 45 7.2 22 22 SSE 9 15 29.79 1009 10 16.0934 0 0
3:51 pm 15:51 Mostly Cloudy 87 30.6 48 8.9 26 26 SSE 12 19 29.78 1009 10 16.0934 0 0
4:51 pm 16:51 Partly Cloudy 85 29.4 53 11.7 33 33 SSE 12 19 29.79 1009 10 16.0934 0 0
5:51 pm 17:51 Mostly Sunny 83 28.3 56 13.3 40 40 SSE 14 22 29.81 1010 10 16.0934 0 0
6:51 pm 18:51 Mostly Cloudy 81 27.2 58 14.4 45 45 SSE 14 22 29.82 1010 10 16.0934 0 0
7:51 pm 19:51 Mostly Clear 81 27.2 57 13.9 44 44 SE 9 15 29.83 1010 10 16.0934 0 0
8:51 pm 20:51 Mostly Cloudy 80 26.7 59 15 49 49 ESE 8 13 29.84 1010 10 16.0934 0 0
9:51 pm 21:51 Mostly Cloudy 78 25.6 60 15.6 54 54 ESE 10 17 29.85 1011 10 16.0934 0 0
10:51 pm 22:51 Cloudy 78 25.6 60 15.6 54 54 ESE 9 15 29.86 1011 10 16.0934 0 0
11:51 pm 23:51 Mostly Cloudy 76 24.4 62 16.7 62 62 SE 13 20 29.88 1012 10 16.0934 0 0

Powered by AerisWeather